SWA708 KAUS-MMUN

Flight info

Callsign SWA708
Flight time 2h 4m
Altitude 37000
Route ILEXY4 ZENZI DCT IAH DCT SBI A766 KEHLI UL209 BETAS DCT VOMAR VOMAR1A
Aircraft B738/M-SDE2E3FGHIRWXY/LB1

Departure

Time 2026-05-07 22:58
Airport Austin Bergstrom International Airport (KAUS)

Arrival

Time 2026-05-08 01:02
Airport Cancún International Airport (MMUN)
Time Latitude Longitude Altitude Speed Heading
2026-05-07 22:39 30.20132 -97.66720 526 ft 0 kts
2026-05-07 22:49 30.20121 -97.66721 526 ft 4 kts
2026-05-07 22:49 30.20095 -97.66726 526 ft 4 kts
2026-05-07 22:49 30.20068 -97.66730 526 ft 4 kts
2026-05-07 22:50 30.20043 -97.66734 526 ft 2 kts
2026-05-07 22:50 30.20042 -97.66734 526 ft 1 kts
2026-05-07 22:51 30.20043 -97.66734 526 ft 1 kts
2026-05-07 22:52 30.20047 -97.66720 526 ft 3 kts 92°
2026-05-07 22:52 30.20005 -97.66693 526 ft 10 kts 168°
2026-05-07 22:52 30.19928 -97.66679 526 ft 12 kts 148°
2026-05-07 22:52 30.19909 -97.66559 526 ft 19 kts 89°
2026-05-07 22:53 30.19912 -97.66390 526 ft 22 kts 89°
2026-05-07 22:53 30.19916 -97.66211 526 ft 22 kts 88°
2026-05-07 22:53 30.19919 -97.66037 526 ft 21 kts 99°
2026-05-07 22:53 30.19792 -97.65985 526 ft 21 kts 178°
2026-05-07 22:54 30.19650 -97.65982 526 ft 21 kts 179°
2026-05-07 22:54 30.19500 -97.65981 526 ft 23 kts 179°
2026-05-07 22:54 30.19335 -97.65979 527 ft 24 kts 179°
2026-05-07 22:54 30.19161 -97.65964 527 ft 26 kts 181°
2026-05-07 22:55 30.18982 -97.65965 527 ft 26 kts 178°
2026-05-07 22:55 30.18810 -97.65959 527 ft 24 kts 178°
2026-05-07 22:55 30.18650 -97.65954 526 ft 23 kts 178°
2026-05-07 22:55 30.18495 -97.65953 526 ft 22 kts 180°
2026-05-07 22:56 30.18344 -97.65953 526 ft 21 kts 180°
2026-05-07 22:56 30.18197 -97.65944 526 ft 21 kts 175°
2026-05-07 22:56 30.18055 -97.65936 527 ft 20 kts 179°
2026-05-07 22:56 30.17927 -97.65905 527 ft 20 kts 117°
2026-05-07 22:57 30.17921 -97.65754 527 ft 13 kts 78°
2026-05-07 22:57 30.17963 -97.65728 526 ft 8 kts 358°
2026-05-07 22:57 30.18224 -97.65735 525 ft 79 kts 359°
2026-05-07 22:57 30.19037 -97.65754 532 ft 152 kts 360°
2026-05-07 22:58 30.20159 -97.65778 1220 ft 164 kts 360°
2026-05-07 22:58 30.21339 -97.65804 2009 ft 182 kts
2026-05-07 22:58 30.22721 -97.65723 2360 ft 214 kts 17°
2026-05-07 22:58 30.23916 -97.64655 2811 ft 229 kts 59°
2026-05-07 22:59 30.24477 -97.62910 3487 ft 237 kts 72°
2026-05-07 22:59 30.24959 -97.60996 3958 ft 256 kts 73°
2026-05-07 22:59 30.25456 -97.59013 4764 ft 264 kts 73°
2026-05-07 22:59 30.25989 -97.56932 5732 ft 269 kts 73°
2026-05-07 23:00 30.26540 -97.54831 6592 ft 276 kts 73°
2026-05-07 23:00 30.27113 -97.52683 7436 ft 283 kts 73°
2026-05-07 23:00 30.27706 -97.50491 8267 ft 288 kts 72°
2026-05-07 23:00 30.28312 -97.48271 9119 ft 291 kts 73°
2026-05-07 23:01 30.28928 -97.46022 9911 ft 296 kts 74°
2026-05-07 23:01 30.29565 -97.43702 10465 ft 312 kts 74°
2026-05-07 23:01 30.30243 -97.41230 10625 ft 340 kts 73°
2026-05-07 23:01 30.30984 -97.38537 10952 ft 359 kts 73°
2026-05-07 23:02 30.31754 -97.35744 11597 ft 367 kts 73°
2026-05-07 23:02 30.32538 -97.32904 12296 ft 374 kts 73°
2026-05-07 23:02 30.33334 -97.30013 12992 ft 380 kts 73°
2026-05-07 23:02 30.34143 -97.27072 13657 ft 387 kts 73°
2026-05-07 23:03 30.34966 -97.24075 14314 ft 394 kts 73°
2026-05-07 23:03 30.35666 -97.20985 14911 ft 400 kts 82°
2026-05-07 23:03 30.35923 -97.17769 15570 ft 403 kts 93°
2026-05-07 23:03 30.35745 -97.14520 16184 ft 407 kts 98°
2026-05-07 23:04 30.35500 -97.11228 16764 ft 414 kts 98°
2026-05-07 23:04 30.35274 -97.07883 17346 ft 420 kts 98°
2026-05-07 23:04 30.35065 -97.04483 17934 ft 426 kts 97°
2026-05-07 23:04 30.34862 -97.01028 18468 ft 433 kts 97°
2026-05-07 23:05 30.34659 -96.97524 19026 ft 438 kts 97°
2026-05-07 23:05 30.34455 -96.93987 19645 ft 441 kts 97°
2026-05-07 23:05 30.34246 -96.90433 20263 ft 445 kts 97°
2026-05-07 23:05 30.34034 -96.86842 20831 ft 448 kts 97°
2026-05-07 23:06 30.33820 -96.83274 21362 ft 452 kts 97°
2026-05-07 23:06 30.33599 -96.79614 21840 ft 457 kts 97°
2026-05-07 23:06 30.33372 -96.75934 22339 ft 461 kts 97°
2026-05-07 23:06 30.33142 -96.72218 22836 ft 464 kts 97°
2026-05-07 23:07 30.32908 -96.68477 23325 ft 467 kts 97°
2026-05-07 23:07 30.32672 -96.64711 23775 ft 471 kts 97°
2026-05-07 23:07 30.32434 -96.60920 24232 ft 474 kts 97°
2026-05-07 23:07 30.32194 -96.57103 24645 ft 478 kts 97°
2026-05-07 23:08 30.31951 -96.53255 25049 ft 481 kts 97°
2026-05-07 23:08 30.31704 -96.49370 25469 ft 484 kts 97°
2026-05-07 23:08 30.31454 -96.45481 25903 ft 486 kts 97°
2026-05-07 23:08 30.31203 -96.41579 26319 ft 487 kts 97°
2026-05-07 23:09 30.30949 -96.37659 26715 ft 490 kts 97°
2026-05-07 23:09 30.30693 -96.33713 27073 ft 493 kts 98°
2026-05-07 23:09 30.30435 -96.29752 27449 ft 495 kts 98°
2026-05-07 23:09 30.30175 -96.25769 27819 ft 497 kts 98°
2026-05-07 23:10 30.29912 -96.21767 28170 ft 500 kts 98°
2026-05-07 23:10 30.29647 -96.17751 28506 ft 502 kts 98°
2026-05-07 23:10 30.29379 -96.13710 28836 ft 505 kts 98°
2026-05-07 23:10 30.29063 -96.09661 29160 ft 504 kts 102°
2026-05-07 23:11 30.28344 -96.05750 29462 ft 501 kts 111°
2026-05-07 23:11 30.27176 -96.01965 29783 ft 497 kts 120°
2026-05-07 23:11 30.25598 -95.98432 30095 ft 494 kts 124°
2026-05-07 23:11 30.23940 -95.94941 30391 ft 496 kts 125°
2026-05-07 23:12 30.22263 -95.91440 30662 ft 499 kts 125°
2026-05-07 23:12 30.20583 -95.87909 30931 ft 501 kts 125°
2026-05-07 23:12 30.18916 -95.84368 31200 ft 503 kts 125°
2026-05-07 23:12 30.17250 -95.80802 31447 ft 505 kts 124°
2026-05-07 23:13 30.15584 -95.77217 31735 ft 506 kts 125°
2026-05-07 23:13 30.13924 -95.73636 32115 ft 505 kts 125°
2026-05-07 23:13 30.12270 -95.70063 32542 ft 502 kts 125°
2026-05-07 23:13 30.10639 -95.66551 32885 ft 502 kts 125°
2026-05-07 23:14 30.08982 -95.62992 33173 ft 503 kts 126°
2026-05-07 23:14 30.07324 -95.59436 33441 ft 504 kts 126°
2026-05-07 23:14 30.05663 -95.55877 33782 ft 502 kts 126°
2026-05-07 23:14 30.04004 -95.52322 34128 ft 501 kts 126°
2026-05-07 23:15 30.02349 -95.48782 34401 ft 502 kts 126°
2026-05-07 23:15 30.00687 -95.45234 34621 ft 503 kts 126°
2026-05-07 23:15 29.99022 -95.41678 34879 ft 504 kts 126°
2026-05-07 23:15 29.97361 -95.38134 35270 ft 501 kts 126°
2026-05-07 23:16 29.95867 -95.34605 35599 ft 506 kts 120°
2026-05-07 23:16 29.94746 -95.30725 35813 ft 516 kts 110°
2026-05-07 23:16 29.93910 -95.26684 35992 ft 519 kts 109°
2026-05-07 23:16 29.93131 -95.22614 36204 ft 520 kts 108°
2026-05-07 23:17 29.92366 -95.18541 36474 ft 520 kts 108°
2026-05-07 23:17 29.91591 -95.14473 36692 ft 520 kts 108°
2026-05-07 23:17 29.90796 -95.10401 36948 ft 519 kts 109°
2026-05-07 23:17 29.89993 -95.06370 37317 ft 515 kts 109°
2026-05-07 23:18 29.89183 -95.02362 37626 ft 512 kts 109°
2026-05-07 23:18 29.88378 -94.98427 37865 ft 511 kts 109°
2026-05-07 23:18 29.87557 -94.94434 38008 ft 513 kts 109°
2026-05-07 23:18 29.86721 -94.90380 38165 ft 514 kts 109°
2026-05-07 23:19 29.85905 -94.86420 38295 ft 515 kts 109°
2026-05-07 23:19 29.85078 -94.82400 38487 ft 515 kts 109°
2026-05-07 23:19 29.84253 -94.78389 38680 ft 515 kts 109°
2026-05-07 23:19 29.83424 -94.74364 38788 ft 517 kts 109°
2026-05-07 23:20 29.82594 -94.70338 38948 ft 517 kts 109°
2026-05-07 23:20 29.81193 -94.63566 38995 ft 521 kts 109°
2026-05-07 23:21 29.79507 -94.55434 38998 ft 522 kts 109°
2026-05-07 23:21 29.77819 -94.47312 39000 ft 521 kts 109°
2026-05-07 23:22 29.76129 -94.39209 38993 ft 520 kts 109°
2026-05-07 23:22 29.74443 -94.31163 38999 ft 520 kts 109°
2026-05-07 23:23 29.72745 -94.23088 39002 ft 519 kts 109°
2026-05-07 23:23 29.71046 -94.15019 38992 ft 519 kts 109°
2026-05-07 23:24 29.69031 -94.07115 38974 ft 505 kts 124°
2026-05-07 23:24 29.67269 -94.03702 39005 ft 490 kts 136°
2026-05-07 23:24 29.65094 -94.00756 38986 ft 477 kts 146°
2026-05-07 23:24 29.62584 -93.98387 39008 ft 462 kts 154°
2026-05-07 23:25 29.59982 -93.96220 39000 ft 463 kts 155°
2026-05-07 23:25 29.54760 -93.91870 38996 ft 465 kts 154°
2026-05-07 23:26 29.49547 -93.87462 39004 ft 466 kts 154°
2026-05-07 23:26 29.44324 -93.83006 39004 ft 468 kts 153°
2026-05-07 23:27 29.36456 -93.76298 39002 ft 471 kts 153°
2026-05-07 23:27 29.31191 -93.71820 38999 ft 472 kts 153°
2026-05-07 23:28 29.25914 -93.67339 39001 ft 473 kts 153°
2026-05-07 23:28 29.20621 -93.62852 39002 ft 473 kts 153°
2026-05-07 23:29 29.15325 -93.58365 38998 ft 473 kts 153°
2026-05-07 23:29 29.10036 -93.53888 38990 ft 473 kts 153°
2026-05-07 23:30 29.04778 -93.49446 38987 ft 473 kts 153°
2026-05-07 23:30 28.99491 -93.44987 38991 ft 472 kts 153°
2026-05-07 23:31 28.94207 -93.40535 38988 ft 472 kts 153°
2026-05-07 23:31 28.88927 -93.36090 38989 ft 471 kts 153°
2026-05-07 23:32 28.83651 -93.31659 39000 ft 471 kts 153°
2026-05-07 23:32 28.78367 -93.27229 38992 ft 471 kts 153°
2026-05-07 23:33 28.73090 -93.22807 38992 ft 471 kts 152°
2026-05-07 23:33 28.67804 -93.18383 38990 ft 471 kts 152°
2026-05-07 23:34 28.62524 -93.13971 38995 ft 471 kts 152°
2026-05-07 23:34 28.57238 -93.09558 38985 ft 471 kts 152°
2026-05-07 23:35 28.51955 -93.05153 38991 ft 471 kts 152°
2026-05-07 23:35 28.46688 -93.00770 38980 ft 472 kts 152°
2026-05-07 23:36 28.41386 -92.96359 38986 ft 472 kts 152°
2026-05-07 23:36 28.36077 -92.91948 38977 ft 473 kts 152°
2026-05-07 23:37 28.30752 -92.87529 38979 ft 474 kts 152°
2026-05-07 23:37 28.25428 -92.83118 38985 ft 474 kts 152°
2026-05-07 23:38 28.20089 -92.78702 38982 ft 475 kts 152°
2026-05-07 23:38 28.14750 -92.74286 38976 ft 475 kts 152°
2026-05-07 23:39 28.09443 -92.69907 38980 ft 475 kts 152°
2026-05-07 23:39 28.04097 -92.65503 38986 ft 475 kts 152°
2026-05-07 23:40 27.98742 -92.61098 38978 ft 476 kts 152°
2026-05-07 23:40 27.93384 -92.56695 38982 ft 476 kts 151°
2026-05-07 23:41 27.88024 -92.52294 38981 ft 476 kts 151°
2026-05-07 23:41 27.82655 -92.47888 38980 ft 477 kts 152°
2026-05-07 23:42 27.77279 -92.43484 38980 ft 477 kts 152°
2026-05-07 23:42 27.71903 -92.39086 38982 ft 477 kts 152°
2026-05-07 23:43 27.66521 -92.34689 38981 ft 477 kts 151°
2026-05-07 23:43 27.61146 -92.30302 38979 ft 477 kts 151°
2026-05-07 23:44 27.55769 -92.25919 38980 ft 477 kts 151°
2026-05-07 23:44 27.50395 -92.21545 38982 ft 476 kts 152°
2026-05-07 23:45 27.45059 -92.17205 38980 ft 476 kts 152°
2026-05-07 23:45 27.39689 -92.12848 38982 ft 475 kts 151°
2026-05-07 23:46 27.34324 -92.08497 38978 ft 475 kts 152°
2026-05-07 23:46 27.28972 -92.04159 38985 ft 474 kts 151°
2026-05-07 23:47 27.23612 -91.99820 38979 ft 474 kts 151°
2026-05-07 23:47 27.18254 -91.95489 38973 ft 474 kts 151°
2026-05-07 23:48 27.12902 -91.91172 38983 ft 473 kts 151°
2026-05-07 23:48 27.07585 -91.86893 38981 ft 473 kts 151°
2026-05-07 23:49 27.02244 -91.82594 38981 ft 472 kts 151°
2026-05-07 23:49 26.96896 -91.78296 38979 ft 472 kts 151°
2026-05-07 23:50 26.91555 -91.74008 38982 ft 472 kts 151°
2026-05-07 23:50 26.86214 -91.69726 38982 ft 472 kts 151°
2026-05-07 23:51 26.80867 -91.65441 38982 ft 472 kts 151°
2026-05-07 23:51 26.75525 -91.61167 38982 ft 472 kts 151°
2026-05-07 23:52 26.70216 -91.56925 38980 ft 472 kts 151°
2026-05-07 23:52 26.64854 -91.52645 38983 ft 472 kts 150°
2026-05-07 23:53 26.59508 -91.48381 38981 ft 472 kts 150°
2026-05-07 23:53 26.54164 -91.44125 38981 ft 471 kts 151°
2026-05-07 23:54 26.48824 -91.39878 38977 ft 471 kts 151°
2026-05-07 23:54 26.43483 -91.35636 38982 ft 471 kts 150°
2026-05-07 23:55 26.38146 -91.31400 38980 ft 470 kts 150°
2026-05-07 23:55 26.32846 -91.27200 38980 ft 470 kts 151°
2026-05-07 23:56 26.27509 -91.22976 38982 ft 470 kts 151°
2026-05-07 23:56 26.22171 -91.18752 38977 ft 470 kts 150°
2026-05-07 23:57 26.16839 -91.14540 38984 ft 470 kts 150°
2026-05-07 23:57 26.11500 -91.10327 38983 ft 470 kts 150°
2026-05-07 23:58 26.06162 -91.06120 38983 ft 470 kts 150°
2026-05-07 23:58 26.00818 -91.01914 38979 ft 470 kts 150°
2026-05-07 23:59 25.95473 -90.97712 38985 ft 471 kts 150°
2026-05-07 23:59 25.90156 -90.93537 38981 ft 471 kts 150°
2026-05-08 00:00 25.84805 -90.89336 38983 ft 471 kts 150°
2026-05-08 00:00 25.79444 -90.85135 38982 ft 472 kts 150°
2026-05-08 00:01 25.74076 -90.80935 38976 ft 472 kts 150°
2026-05-08 00:01 25.68703 -90.76731 38983 ft 472 kts 150°
2026-05-08 00:02 25.63336 -90.72539 38982 ft 472 kts 150°
2026-05-08 00:02 25.57960 -90.68346 38974 ft 472 kts 150°
2026-05-08 00:03 25.52595 -90.64166 38969 ft 471 kts 150°
2026-05-08 00:03 25.47234 -90.59993 38971 ft 471 kts 150°
2026-05-08 00:04 25.41867 -90.55818 38972 ft 471 kts 150°
2026-05-08 00:04 25.36505 -90.51655 38969 ft 471 kts 150°
2026-05-08 00:05 25.31176 -90.47520 38970 ft 471 kts 150°
2026-05-08 00:05 25.25801 -90.43355 38969 ft 471 kts 150°
2026-05-08 00:06 25.20439 -90.39205 38972 ft 471 kts 150°
2026-05-08 00:06 25.15072 -90.35054 38972 ft 471 kts 150°
2026-05-08 00:07 25.09704 -90.30908 38972 ft 471 kts 150°
2026-05-08 00:07 25.05240 -90.27464 38971 ft 471 kts 149°
2026-05-08 00:08 24.98990 -90.22646 38970 ft 471 kts 149°
2026-05-08 00:08 24.93611 -90.18504 38965 ft 472 kts 149°
2026-05-08 00:09 24.89099 -90.15035 38963 ft 472 kts 149°
2026-05-08 00:09 24.83713 -90.10897 38963 ft 472 kts 149°
2026-05-08 00:10 24.78333 -90.06766 38962 ft 471 kts 149°
2026-05-08 00:10 24.72955 -90.02642 38958 ft 471 kts 149°
2026-05-08 00:11 24.67575 -89.98525 38949 ft 471 kts 149°
2026-05-08 00:11 24.62236 -89.94438 38953 ft 471 kts 149°
2026-05-08 00:12 24.56866 -89.90329 38945 ft 470 kts 149°
2026-05-08 00:12 24.51454 -89.86309 38934 ft 467 kts 155°
2026-05-08 00:13 24.48516 -89.84862 38949 ft 460 kts 166°
2026-05-08 00:13 24.45443 -89.83938 38944 ft 455 kts 174°
2026-05-08 00:13 24.39209 -89.83426 38944 ft 449 kts 182°
2026-05-08 00:14 24.32968 -89.83180 38939 ft 449 kts 182°
2026-05-08 00:14 24.26735 -89.82898 38931 ft 449 kts 182°
2026-05-08 00:15 24.20484 -89.82583 38935 ft 450 kts 182°
2026-05-08 00:15 24.14225 -89.82259 38931 ft 451 kts 181°
2026-05-08 00:16 24.07956 -89.81934 38918 ft 451 kts 181°
2026-05-08 00:16 24.01683 -89.81611 38918 ft 451 kts 181°
2026-05-08 00:17 23.95438 -89.81290 38913 ft 452 kts 181°
2026-05-08 00:17 23.89161 -89.80968 38919 ft 452 kts 182°
2026-05-08 00:18 23.82882 -89.80647 38914 ft 452 kts 181°
2026-05-08 00:18 23.76593 -89.80324 38913 ft 452 kts 181°
2026-05-08 00:19 23.70302 -89.79996 38909 ft 452 kts 181°
2026-05-08 00:19 23.64014 -89.79662 38908 ft 452 kts 181°
2026-05-08 00:20 23.57731 -89.79328 38908 ft 452 kts 181°
2026-05-08 00:20 23.51446 -89.78994 38903 ft 452 kts 181°
2026-05-08 00:21 23.45205 -89.78663 38900 ft 451 kts 181°
2026-05-08 00:21 23.38923 -89.78333 38898 ft 452 kts 181°
2026-05-08 00:22 23.32645 -89.78003 38898 ft 452 kts 181°
2026-05-08 00:22 23.26363 -89.77672 38899 ft 452 kts 181°
2026-05-08 00:23 23.20074 -89.77341 38889 ft 452 kts 181°
2026-05-08 00:23 23.13791 -89.77011 38887 ft 452 kts 181°
2026-05-08 00:24 23.07498 -89.76681 38888 ft 453 kts 181°
2026-05-08 00:24 23.01204 -89.76352 38886 ft 453 kts 181°
2026-05-08 00:25 22.94903 -89.76020 38883 ft 454 kts 181°
2026-05-08 00:25 22.88627 -89.75690 38879 ft 455 kts 180°
2026-05-08 00:26 22.82309 -89.75361 38881 ft 455 kts 180°
2026-05-08 00:26 22.75976 -89.75029 38879 ft 455 kts 180°
2026-05-08 00:27 22.72812 -89.74668 38850 ft 460 kts 167°
2026-05-08 00:27 22.69849 -89.73327 38884 ft 466 kts 149°
2026-05-08 00:27 22.67357 -89.71074 38876 ft 470 kts 132°
2026-05-08 00:27 22.65508 -89.68157 38858 ft 473 kts 115°
2026-05-08 00:28 22.63391 -89.61428 38876 ft 473 kts 107°
2026-05-08 00:28 22.61490 -89.54588 38884 ft 474 kts 107°
2026-05-08 00:29 22.59545 -89.47760 38883 ft 475 kts 108°
2026-05-08 00:29 22.57561 -89.40986 38889 ft 476 kts 108°
2026-05-08 00:30 22.55528 -89.34119 38889 ft 477 kts 108°
2026-05-08 00:30 22.53513 -89.27329 38888 ft 477 kts 108°
2026-05-08 00:31 22.51480 -89.20486 38887 ft 478 kts 108°
2026-05-08 00:31 22.49446 -89.13644 38889 ft 477 kts 108°
2026-05-08 00:32 22.47412 -89.06813 38889 ft 477 kts 108°
2026-05-08 00:32 22.45377 -88.99986 38882 ft 476 kts 108°
2026-05-08 00:33 22.44354 -88.96554 38420 ft 483 kts 108°
2026-05-08 00:33 22.43322 -88.93105 37863 ft 481 kts 108°
2026-05-08 00:33 22.42294 -88.89670 37260 ft 480 kts 108°
2026-05-08 00:33 22.41264 -88.86234 36643 ft 480 kts 108°
2026-05-08 00:34 22.40236 -88.82796 36010 ft 480 kts 108°
2026-05-08 00:34 22.39207 -88.79365 35313 ft 481 kts 109°
2026-05-08 00:34 22.38171 -88.75917 34589 ft 483 kts 109°
2026-05-08 00:34 22.37130 -88.72457 33848 ft 485 kts 109°
2026-05-08 00:35 22.36084 -88.68983 33087 ft 487 kts 109°
2026-05-08 00:35 22.35047 -88.65542 32299 ft 489 kts 109°
2026-05-08 00:35 22.33999 -88.62063 31759 ft 485 kts 109°
2026-05-08 00:35 22.32960 -88.58612 31184 ft 481 kts 109°
2026-05-08 00:36 22.31926 -88.55184 30626 ft 477 kts 110°
2026-05-08 00:36 22.30900 -88.51785 30068 ft 473 kts 110°
2026-05-08 00:36 22.29884 -88.48423 29513 ft 469 kts 110°
2026-05-08 00:36 22.28875 -88.45087 28948 ft 465 kts 110°
2026-05-08 00:37 22.27873 -88.41774 28380 ft 461 kts 110°
2026-05-08 00:37 22.26882 -88.38504 27831 ft 456 kts 110°
2026-05-08 00:37 22.25899 -88.35261 27287 ft 451 kts 110°
2026-05-08 00:38 22.23966 -88.28888 26189 ft 442 kts 110°
2026-05-08 00:38 22.23011 -88.25751 25631 ft 438 kts 111°
2026-05-08 00:38 22.22063 -88.22635 25087 ft 435 kts 111°
2026-05-08 00:38 22.21124 -88.19552 24538 ft 431 kts 111°
2026-05-08 00:39 22.20206 -88.16540 23998 ft 427 kts 111°
2026-05-08 00:39 22.19281 -88.13508 23453 ft 423 kts 111°
2026-05-08 00:39 22.18366 -88.10508 22903 ft 419 kts 110°
2026-05-08 00:39 22.17457 -88.07529 22359 ft 415 kts 110°
2026-05-08 00:40 22.16557 -88.04582 21818 ft 411 kts 110°
2026-05-08 00:40 22.15665 -88.01663 21279 ft 407 kts 110°
2026-05-08 00:40 22.14782 -87.98776 20745 ft 404 kts 110°
2026-05-08 00:40 22.13864 -87.95935 20348 ft 395 kts 115°
2026-05-08 00:41 22.12434 -87.93473 19952 ft 385 kts 133°
2026-05-08 00:41 22.10521 -87.91489 19484 ft 379 kts 138°
2026-05-08 00:41 22.08567 -87.89592 18980 ft 377 kts 139°
2026-05-08 00:41 22.06618 -87.87714 18494 ft 374 kts 138°
2026-05-08 00:42 22.04696 -87.85854 18008 ft 370 kts 138°
2026-05-08 00:42 22.02793 -87.83995 17529 ft 367 kts 139°
2026-05-08 00:42 22.00902 -87.82169 17057 ft 363 kts 137°
2026-05-08 00:42 21.99040 -87.80337 16573 ft 361 kts 137°
2026-05-08 00:43 21.97201 -87.78507 16102 ft 358 kts 137°
2026-05-08 00:43 21.95377 -87.76692 15622 ft 356 kts 137°
2026-05-08 00:43 21.93560 -87.74891 15148 ft 354 kts 137°
2026-05-08 00:43 21.91753 -87.73106 14686 ft 351 kts 137°
2026-05-08 00:44 21.89956 -87.71333 14213 ft 349 kts 137°
2026-05-08 00:44 21.88193 -87.69596 13672 ft 348 kts 136°
2026-05-08 00:44 21.86395 -87.67827 13113 ft 349 kts 136°
2026-05-08 00:44 21.84610 -87.66070 12637 ft 347 kts 136°
2026-05-08 00:45 21.82833 -87.64321 12181 ft 343 kts 136°
2026-05-08 00:45 21.81080 -87.62597 11715 ft 340 kts 136°
2026-05-08 00:45 21.79340 -87.60885 11302 ft 337 kts 136°
2026-05-08 00:45 21.77626 -87.59201 10950 ft 331 kts 136°
2026-05-08 00:46 21.75931 -87.57536 10563 ft 327 kts 136°
2026-05-08 00:46 21.74280 -87.55915 10421 ft 316 kts 136°
2026-05-08 00:46 21.72686 -87.54349 10276 ft 304 kts 136°
2026-05-08 00:46 21.71150 -87.52840 10150 ft 293 kts 136°
2026-05-08 00:47 21.69668 -87.51386 10023 ft 284 kts 136°
2026-05-08 00:47 21.68227 -87.49968 9776 ft 280 kts 136°
2026-05-08 00:47 21.66797 -87.48563 9487 ft 277 kts 136°
2026-05-08 00:47 21.65377 -87.47169 9198 ft 275 kts 136°
2026-05-08 00:48 21.63962 -87.45793 8902 ft 274 kts 138°
2026-05-08 00:48 21.62515 -87.44514 8618 ft 273 kts 140°
2026-05-08 00:48 21.61033 -87.43252 8344 ft 270 kts 141°
2026-05-08 00:48 21.59564 -87.42010 8073 ft 267 kts 141°
2026-05-08 00:49 21.58103 -87.40773 7789 ft 267 kts 141°
2026-05-08 00:49 21.56649 -87.39537 7505 ft 266 kts 141°
2026-05-08 00:49 21.55202 -87.38303 7238 ft 265 kts 141°
2026-05-08 00:49 21.53763 -87.37075 6974 ft 264 kts 140°
2026-05-08 00:50 21.52330 -87.35848 6700 ft 263 kts 141°
2026-05-08 00:50 21.50908 -87.34630 6418 ft 262 kts 141°
2026-05-08 00:50 21.49490 -87.33418 6157 ft 259 kts 141°
2026-05-08 00:50 21.48090 -87.32222 5894 ft 256 kts 141°
2026-05-08 00:51 21.46703 -87.31035 5623 ft 253 kts 140°
2026-05-08 00:51 21.45332 -87.29863 5350 ft 250 kts 141°
2026-05-08 00:51 21.43978 -87.28708 5096 ft 248 kts 140°
2026-05-08 00:51 21.42633 -87.27557 4843 ft 246 kts 141°
2026-05-08 00:52 21.41297 -87.26414 4592 ft 245 kts 141°
2026-05-08 00:52 21.39986 -87.25294 4352 ft 243 kts 141°
2026-05-08 00:52 21.38659 -87.24160 4103 ft 244 kts 140°
2026-05-08 00:52 21.37284 -87.23138 4004 ft 238 kts 150°
2026-05-08 00:53 21.35835 -87.22361 3991 ft 227 kts 152°
2026-05-08 00:53 21.34419 -87.21628 3987 ft 225 kts 152°
2026-05-08 00:53 21.33017 -87.20886 3981 ft 223 kts 152°
2026-05-08 00:53 21.31637 -87.20149 3982 ft 221 kts 151°
2026-05-08 00:54 21.30268 -87.19413 3983 ft 220 kts 151°
2026-05-08 00:54 21.28855 -87.18728 3751 ft 229 kts 157°
2026-05-08 00:54 21.27336 -87.18153 3404 ft 233 kts 159°
2026-05-08 00:54 21.25804 -87.17586 3040 ft 231 kts 158°
2026-05-08 00:55 21.24301 -87.17019 2680 ft 228 kts 158°
2026-05-08 00:55 21.22817 -87.16455 2329 ft 226 kts 158°
2026-05-08 00:55 21.21399 -87.15764 2043 ft 222 kts 139°
2026-05-08 00:55 21.20374 -87.14570 2008 ft 217 kts 125°
2026-05-08 00:56 21.19816 -87.13684 2015 ft 216 kts 123°
2026-05-08 00:56 21.18996 -87.12331 2009 ft 217 kts 123°
2026-05-08 00:56 21.18170 -87.10975 1999 ft 216 kts 123°
2026-05-08 00:56 21.17342 -87.09632 1994 ft 215 kts 124°
2026-05-08 00:57 21.16517 -87.08301 1986 ft 213 kts 124°
2026-05-08 00:57 21.15701 -87.06985 1976 ft 211 kts 124°
2026-05-08 00:57 21.14906 -87.05710 1911 ft 198 kts 124°
2026-05-08 00:57 21.14171 -87.04531 1824 ft 184 kts 124°
2026-05-08 00:58 21.13472 -87.03412 1759 ft 179 kts 124°
2026-05-08 00:58 21.12799 -87.02333 1707 ft 168 kts 124°
2026-05-08 00:58 21.12171 -87.01326 1647 ft 159 kts 124°
2026-05-08 00:58 21.11564 -87.00354 1611 ft 156 kts 124°
2026-05-08 00:59 21.10964 -86.99391 1552 ft 156 kts 123°
2026-05-08 00:59 21.10349 -86.98408 1498 ft 164 kts 125°
2026-05-08 00:59 21.09707 -86.97378 1452 ft 167 kts 126°
2026-05-08 00:59 21.09063 -86.96350 1379 ft 165 kts 125°
2026-05-08 01:00 21.08432 -86.95341 1332 ft 158 kts 125°
2026-05-08 01:00 21.07840 -86.94390 1144 ft 149 kts 126°
2026-05-08 01:00 21.07279 -86.93488 991 ft 144 kts 125°
2026-05-08 01:00 21.06737 -86.92579 786 ft 145 kts 123°
2026-05-08 01:01 21.06202 -86.91687 629 ft 144 kts 126°
2026-05-08 01:01 21.05628 -86.90813 485 ft 143 kts 127°
2026-05-08 01:01 21.05064 -86.89934 305 ft 143 kts 125°
2026-05-08 01:01 21.04514 -86.89059 97 ft 140 kts 125°
2026-05-08 01:02 21.03997 -86.88244 31 ft 115 kts 123°
2026-05-08 01:02 21.03678 -86.87736 34 ft 36 kts 124°
2026-05-08 01:02 21.03606 -86.87545 33 ft 26 kts 100°
2026-05-08 01:02 21.03607 -86.87424 33 ft 12 kts 49°
2026-05-08 01:03 21.03680 -86.87442 31 ft 12 kts 312°
2026-05-08 01:03 21.03741 -86.87522 28 ft 19 kts 304°
2026-05-08 01:03 21.03829 -86.87663 28 ft 25 kts 303°
2026-05-08 01:03 21.03921 -86.87811 29 ft 23 kts 303°
2026-05-08 01:04 21.04010 -86.87952 29 ft 22 kts 304°
2026-05-08 01:04 21.04095 -86.88088 29 ft 22 kts 304°
2026-05-08 01:04 21.04178 -86.88220 29 ft 21 kts 304°
2026-05-08 01:04 21.04259 -86.88349 28 ft 21 kts 303°
2026-05-08 01:05 21.04338 -86.88474 30 ft 20 kts 303°
2026-05-08 01:05 21.04404 -86.88579 30 ft 12 kts 304°
2026-05-08 01:05 21.04462 -86.88620 29 ft 11 kts
2026-05-08 01:05 21.04536 -86.88577 28 ft 14 kts 33°
2026-05-08 01:06 21.04630 -86.88510 28 ft 17 kts 33°
2026-05-08 01:06 21.04728 -86.88440 28 ft 17 kts 33°
2026-05-08 01:06 21.04798 -86.88391 28 ft 9 kts 33°
2026-05-08 01:06 21.04833 -86.88356 28 ft 6 kts 69°
2026-05-08 01:07 21.04820 -86.88318 28 ft 6 kts 135°
2026-05-08 01:07 21.04786 -86.88305 28 ft 5 kts 171°
2026-05-08 01:07 21.04774 -86.88300 28 ft 1 kts 150°
2026-05-08 01:07 21.04769 -86.88295 28 ft 0 kts 142°